Mexia Limestone County Airpor, TX

1:02 AM CDT on October 21, 2019 (GMT -0500)
Mexia-Limestone County

Weather History for KLXY - August, 2019

Change the Weather History Date:

Monday, August 26, 2019

  Actual Average (KACT) Record (KACT)
Temperature  
Mean Temperature 87 °F -  
Max Temperature 99 °F 93 °F 105 °F (1999)
Min Temperature 76 °F 71 °F 61 °F (1926)
Cooling Degree Days 22    
Growing Degree Days 37 (Base 50)    
Moisture  
Dew Point 73 °F    
Average Humidity 69    
Maximum Humidity 99    
Minimum Humidity 41    
Precipitation  
Precipitation 0.00 in - - ()
Sea Level Pressure  
Sea Level Pressure 29.78 in    
Wind  
Wind Speed 11 mph (South)    
Max Wind Speed 21 mph    
Max Gust Speed 31 mph    
Visibility 9 miles    
Events      
Averages and records for this station are not official NWS values.
T = Trace of Precipitation, MM = Missing Value Source: NWS Daily Summary

Daily Weather History Graph

Daily Weather History Graph

Search for Another Location

Airport or City:

Astronomy

Aug. 26, 2019 Rise Set
Actual Time 6:57 AM CDT 7:57 PM CDT
Civil Twilight 6:32 AM CDT 8:22 PM CDT
Nautical Twilight 6:03 AM CDT 8:51 PM CDT
Astronomical Twilight 5:32 AM CDT 9:22 PM CDT
Moon 2:37 AM CDT (8/26) 5:08 PM CDT (8/26)
Length of Visible Light 13h 49m
Length of Day
12h 59m
Waning Crescent, 19% of the Moon is Illuminated
Aug 26
Waning Crescent
Aug 30
New
Sep 5
First Quarter
Sep 13
Full
Sep 21
Last Quarter

Hourly Weather History & Observations

Time (CDT) Temp. Heat Index Dew Point Humidity Pressure Visibility Wind Dir Wind Speed Gust Speed Precip Events Conditions
12:15 AM 80.1 °F 84.6 °F 74.1 °F 82% 29.80 in 10.0 mi South 11.5 mph - N/A   Clear
12:35 AM 79.7 °F - 73.9 °F 82% 29.80 in 10.0 mi South 11.5 mph - N/A   Clear
12:55 AM 79.3 °F - 74.3 °F 84% 29.80 in 10.0 mi South 10.4 mph - N/A   Clear
1:15 AM 79.0 °F - 74.3 °F 85% 29.80 in 10.0 mi South 10.4 mph - N/A   Clear
1:35 AM 78.4 °F - 74.3 °F 87% 29.80 in 10.0 mi South 9.2 mph - N/A   Clear
1:55 AM 78.3 °F - 74.3 °F 88% 29.80 in 10.0 mi South 9.2 mph - N/A   Clear
2:15 AM 77.9 °F - 76.3 °F 95% 29.79 in 10.0 mi South 8.1 mph - N/A   Clear
2:35 AM 77.9 °F - 77.2 °F 98% 29.80 in 10.0 mi South 9.2 mph - N/A   Clear
2:55 AM 77.9 °F - 77.2 °F 98% 29.79 in 10.0 mi SSE 9.2 mph - N/A   Clear
3:15 AM 77.4 °F - 77.0 °F 99% 29.79 in 10.0 mi South 6.9 mph - N/A   Clear
3:35 AM 77.4 °F - 76.8 °F 98% 29.79 in 10.0 mi South 6.9 mph - N/A   Clear
3:55 AM 77.0 °F - 76.5 °F 98% 29.79 in 10.0 mi South 5.8 mph - N/A   Clear
4:15 AM 77.0 °F - 76.3 °F 98% 29.80 in 10.0 mi SSE 5.8 mph - N/A   Clear
4:35 AM 76.6 °F - 76.1 °F 98% 29.80 in 7.0 mi SSE 5.8 mph - N/A   Clear
4:55 AM 76.5 °F - 76.1 °F 99% 29.80 in 7.0 mi SSE 5.8 mph - N/A   Scattered Clouds
5:15 AM 76.5 °F - 76.1 °F 99% 29.80 in 5.0 mi SSE 5.8 mph - N/A   Scattered Clouds
5:35 AM 76.3 °F - 75.7 °F 98% 29.80 in 5.0 mi SSE 4.6 mph - N/A   Scattered Clouds
5:55 AM 76.3 °F - 75.7 °F 98% 29.80 in 4.0 mi SSE 5.8 mph - N/A   Mostly Cloudy
6:15 AM 76.5 °F - 76.1 °F 99% 29.80 in 4.0 mi SSE 5.8 mph - N/A   Overcast
6:35 AM 76.5 °F - 76.1 °F 99% 29.80 in 4.0 mi SSE 6.9 mph - N/A   Overcast
6:55 AM 76.5 °F - 76.1 °F 99% 29.80 in 4.0 mi South 6.9 mph - N/A   Overcast
7:15 AM 76.5 °F - 76.1 °F 99% 29.80 in 4.0 mi South 5.8 mph - N/A   Overcast
7:35 AM 76.5 °F - 76.1 °F 99% 29.80 in 3.0 mi South 6.9 mph - N/A   Overcast
7:55 AM 77.0 °F - 76.5 °F 98% 29.81 in 4.0 mi South 8.1 mph - N/A   Overcast
8:15 AM 77.4 °F - 77.0 °F 99% 29.81 in 10.0 mi South 9.2 mph - N/A   Overcast
8:35 AM 78.6 °F - 77.9 °F 98% 29.81 in 10.0 mi South 13.8 mph 21.9 mph N/A   Overcast
8:55 AM 80.1 °F 85.4 °F 75.9 °F 87% 29.81 in 10.0 mi South 10.4 mph 25.3 mph N/A   Overcast
9:15 AM 81.9 °F 88.5 °F 75.0 °F 80% 29.81 in 10.0 mi SSW 15.0 mph 24.2 mph N/A   Overcast
9:35 AM 83.3 °F 90.8 °F 75.0 °F 76% 29.81 in 10.0 mi South 17.3 mph 26.5 mph N/A   Mostly Cloudy
9:55 AM 84.6 °F 92.4 °F 74.7 °F 72% 29.81 in 10.0 mi South 12.7 mph 26.5 mph N/A   Scattered Clouds
10:15 AM 85.6 °F 93.4 °F 74.1 °F 68% 29.81 in 10.0 mi SSW 15.0 mph 27.6 mph N/A   Clear
10:35 AM 86.9 °F 95.4 °F 74.3 °F 66% 29.81 in 10.0 mi SSW 17.3 mph 26.5 mph N/A   Clear
10:55 AM 88.2 °F 96.4 °F 73.6 °F 62% 29.80 in 10.0 mi South 18.4 mph 27.6 mph N/A   Clear
11:15 AM 89.6 °F 98.7 °F 73.9 °F 60% 29.80 in 10.0 mi South 16.1 mph 27.6 mph N/A   Clear
11:35 AM 90.1 °F 98.9 °F 73.8 °F 58% 29.80 in 10.0 mi South 16.1 mph - N/A   Clear
11:55 AM 91.0 °F 99.3 °F 73.0 °F 55% 29.79 in 10.0 mi South 18.4 mph 25.3 mph N/A   Clear
12:15 PM 91.8 °F 99.7 °F 72.7 °F 53% 29.79 in 10.0 mi South 19.6 mph 26.5 mph N/A   Clear
12:35 PM 92.8 °F 101.5 °F 72.7 °F 52% 29.79 in 10.0 mi SSE 12.7 mph 24.2 mph N/A   Clear
12:55 PM 93.6 °F 101.9 °F 72.1 °F 50% 29.78 in 10.0 mi South 18.4 mph 24.2 mph N/A   Clear
1:15 PM 95.0 °F 103.2 °F 71.8 °F 47% 29.78 in 10.0 mi South 20.7 mph 25.3 mph N/A   Clear
1:35 PM 95.2 °F 103.6 °F 71.8 °F 47% 29.78 in 10.0 mi South 17.3 mph 27.6 mph N/A   Clear
1:55 PM 95.9 °F 103.8 °F 71.2 °F 45% 29.77 in 10.0 mi SSE 16.1 mph 31.1 mph N/A   Clear
2:15 PM 96.8 °F 105.1 °F 71.6 °F 44% 29.77 in 10.0 mi South 19.6 mph 26.5 mph N/A   Clear
2:35 PM 96.8 °F 105.1 °F 71.4 °F 44% 29.76 in 10.0 mi South 19.6 mph 29.9 mph N/A   Clear
2:55 PM 97.7 °F 105.7 °F 71.2 °F 42% 29.76 in 10.0 mi SSW 19.6 mph 25.3 mph N/A   Clear
3:15 PM 97.2 °F 105.2 °F 71.1 °F 43% 29.75 in 10.0 mi SSW 13.8 mph 26.5 mph N/A   Clear
3:35 PM 97.7 °F 105.7 °F 71.1 °F 42% 29.74 in 10.0 mi SSW 13.8 mph 24.2 mph N/A   Clear
3:55 PM 98.2 °F 106.9 °F 71.4 °F 42% 29.73 in 10.0 mi South 12.7 mph 21.9 mph N/A   Clear
4:15 PM 98.4 °F 106.5 °F 71.2 °F 41% 29.73 in 10.0 mi South 13.8 mph 26.5 mph N/A   Clear
4:35 PM 98.6 °F 106.9 °F 71.4 °F 41% 29.73 in 10.0 mi South 17.3 mph 25.3 mph N/A   Scattered Clouds
4:55 PM 97.7 °F 106.4 °F 71.8 °F 43% 29.72 in 10.0 mi South 13.8 mph 25.3 mph N/A   Scattered Clouds
5:15 PM 97.5 °F 106.0 °F 71.4 °F 43% 29.72 in 10.0 mi SSE 12.7 mph 26.5 mph N/A   Clear
5:35 PM 97.5 °F 105.3 °F 71.1 °F 42% 29.72 in 10.0 mi South 16.1 mph 23.0 mph N/A   Clear
5:55 PM 97.0 °F 104.8 °F 70.9 °F 43% 29.73 in 10.0 mi South 11.5 mph 24.2 mph N/A   Clear
6:15 PM 96.6 °F 104.0 °F 71.1 °F 43% 29.72 in 10.0 mi SSE 13.8 mph 18.4 mph N/A   Clear
6:35 PM 95.9 °F 103.2 °F 71.1 °F 44% 29.73 in 10.0 mi South 11.5 mph 17.3 mph N/A   Clear
6:55 PM 95.0 °F 101.9 °F 70.9 °F 45% 29.73 in 10.0 mi SSE 10.4 mph - N/A   Clear
7:15 PM 94.1 °F 100.6 °F 70.7 °F 46% 29.73 in 10.0 mi SSE 10.4 mph - N/A   Clear
7:35 PM 92.8 °F 99.2 °F 70.7 °F 48% 29.73 in 10.0 mi SSE 6.9 mph - N/A   Clear
7:55 PM 91.4 °F 97.8 °F 70.9 °F 51% 29.74 in 10.0 mi SSE 4.6 mph - N/A   Clear
8:15 PM 89.6 °F 96.2 °F 71.2 °F 55% 29.75 in 10.0 mi SE 4.6 mph - N/A   Clear
8:35 PM 88.9 °F 95.1 °F 71.6 °F 56% 29.76 in 10.0 mi SE 5.8 mph - N/A   Clear
8:55 PM 88.2 °F 94.6 °F 71.6 °F 58% 29.76 in 10.0 mi SE 5.8 mph - N/A   Clear
9:15 PM 87.8 °F 93.8 °F 71.2 °F 58% 29.77 in 10.0 mi SE 5.8 mph - N/A   Clear
9:35 PM 87.1 °F 92.8 °F 71.2 °F 59% 29.78 in 10.0 mi SSE 4.6 mph - N/A   Clear
9:55 PM 86.9 °F 92.5 °F 71.2 °F 59% 29.79 in 10.0 mi SSE 6.9 mph - N/A   Clear
10:15 PM 87.3 °F 93.6 °F 71.6 °F 60% 29.79 in 10.0 mi SSE 13.8 mph 21.9 mph N/A   Clear
10:35 PM 86.9 °F 92.9 °F 71.6 °F 60% 29.79 in 10.0 mi South 13.8 mph 20.7 mph N/A   Clear
10:55 PM 86.5 °F 92.5 °F 71.6 °F 61% 29.79 in 10.0 mi South 12.7 mph 20.7 mph N/A   Clear
11:15 PM 86.0 °F 92.2 °F 72.0 °F 63% 29.79 in 10.0 mi South 15.0 mph 21.9 mph N/A   Clear
11:35 PM 85.6 °F 92.2 °F 72.5 °F 65% 29.80 in 10.0 mi South 15.0 mph - N/A   Clear
11:55 PM 85.1 °F 91.5 °F 72.7 °F 66% 29.81 in 10.0 mi South 13.8 mph 18.4 mph N/A   Clear